Preview of NWS' New Version of Forecast
This preview is not operational and should not be used for support decisions.
Latest weather observations around

Chanute, Chanute Martin Johnson Airport (KCNU)

Using International System of Units (Switch to English Units)
Date/ Time (CDT) Wind (kph) Vis. (km) Weather Sky Cond. Temp (°C) Rel. Humidity Wind Chill (°C) Heat Index (°C) Pressure Precip. (cm)
Air Dwpt 6 hour Altimeter (hPa) Sea level (hPa) 1 hr 3 hr 6 hr
Max Min
Aug 25 13:02 SSW 13 16.09 Cloudy SCT014 OVC021 23 19     81%   23 1011.9        
Aug 25 12:52 WSW 9 16.09 Cloudy BKN014 OVC021 23 19     79%   24 1012.2 1011     1
Aug 25 12:21 SW 11 16.09 Cloudy BKN010 BKN015 OVC020 23 19     81%   23 1012.5        
Aug 25 12:09 WSW 9 16.09 Cloudy BKN009 BKN015 OVC020 22 19     84%   23 1012.5        
Aug 25 11:52 SW 8 16.09 Cloudy SCT007 OVC020 22 19     84%   23 1012.9 1011.8 0    
Aug 25 10:59 SW 8 16.09 Mostly Cloudy BKN006 BKN100 BKN120 21 19     90%     1012.2   0    
Aug 25 10:52 S 8 16.09 Light Rain SCT006 BKN060 OVC110 21 19     90%     1012.2 1011.2 0    
Aug 25 10:29 SE 13 16.09 Light Rain SCT005 BKN070 OVC110 21 19     90%     1011.9   0    
Aug 25 10:11 S 11 16.09 Light Rain BKN005 BKN055 OVC080 21 19     93%     1012.2   0    
Aug 25 10:03 SSE 13 16.09 Light Rain BKN004 BKN095 OVC120 21 19     90%     1012.2   0    
Aug 25 09:52 SSE 11 16.09 Light Rain SCT007 SCT075 BKN095 20 19     93%     1011.9 1011 0 1  
Aug 25 08:52 SSE 13 14.48 Light Rain BKN065 BKN075 OVC095 20 18     90%     1012.9 1012 0    
Aug 25 07:52 ESE 11 11.27 Light Rain FEW039 BKN090 OVC110 19 18     93%     1012.9 1011.9 1    
Aug 25 07:34 SE 8 3.22 Heavy Rain and Fog/Mist SCT039 SCT070 OVC090 19 18     93%     1013.2   0    
Aug 25 06:52 SSE 11 4.83 Heavy Rain and Fog/Mist BKN049 BKN070 OVC090 19 18     90%     1013.6 1012.5 2   2
Aug 25 06:46 S 11 3.22 Heavy Rain and Fog/Mist BKN041 OVC085 19 18     94%     1013.6   2    
Aug 25 06:41 S 9 4.83 Thunderstorms and Heavy Rain and Fog/Mist BKN031 OVC080 19 18     93%     1013.2   2    
Aug 25 06:35 S 5 3.22 Thunderstorms and Rain and Fog/Mist BKN029 BKN065 OVC080 19 18     93%     1013.2   1    
Aug 25 06:30 SW 8 2.01 Thunderstorms and Heavy Rain and Fog/Mist BKN029 OVC080 19 18     90%     1013.6   1    
Aug 25 06:13 WNW 9 1.21 Thunderstorms and Heavy Rain and Fog/Mist BKN027 OVC036 19 18     93%     1013.6   1    
Aug 25 06:10 WNW 8 2.01 Thunderstorms and Heavy Rain and Fog/Mist BKN029 OVC040 19 18     93%     1013.9   0    
Aug 25 06:07 WSW 11 4.02 Thunderstorms and Rain and Fog/Mist FEW018 BKN033 OVC039 19 18     93%     1013.9   0    
Aug 25 06:03 SW 9 4.83 Rain and Fog/Mist FEW006 BKN031 OVC039 20 18     90%     1013.9   0    
Aug 25 05:52 WNW 18 3.22 Heavy Rain and Fog/Mist SCT006 BKN018 OVC031 20 18     90%     1013.6 1012.4 0    
Aug 25 05:26 S 15 16.09 Cloudy OVC005 23 21     90%   23 1012.5        
Aug 25 05:04 S 11 12.87 Cloudy OVC004 22 21     93%   23 1012.9        
Aug 25 04:52 SSE 15 9.66 Fog/Mist OVC003 22 21     93%   23 1013.2 1012      
Aug 25 04:37 SE 18 4.83 Fog/Mist OVC003 22 21     91%   23 1012.5        
Aug 25 04:22 SE 17 4.02 Fog/Mist OVC003 22 21     91%   23 1012.9        
Aug 25 03:52 SE 18 8.05 Fog/Mist OVC003 22 21     91%   23 1013.6 1012.5      
Aug 25 03:47 SE 15 8.05 Fog/Mist OVC003 22 21     94%   23 1013.6        
Aug 25 03:21 SE 15 12.87 Cloudy OVC004 22 21     91%   23 1013.9        
Aug 25 02:52 SE 11 16.09 Cloudy OVC005 22 21     91%   23 1014.2 1013.1      
Aug 25 01:52 ESE 15 16.09 Cloudy OVC008 22 20     87%   23 1014.6 1013.3      
Aug 25 00:52 ESE 21 16.09 Cloudy OVC009 22 20     87%   23 1014.6 1013.6      
Aug 25 00:19 ESE 17 16.09 Cloudy OVC009 22 20     87%   23 1015.2        
Aug 24 23:52 E 15 16.09 Cloudy OVC011 22 19     84%   23 1015.6 1014.4      
Aug 24 22:52 E 9 16.09 Cloudy OVC013 22 19     84%   23 1016.3 1015      
Aug 24 22:43 ENE 11 16.09 Cloudy OVC013 22 19     84%   23 1015.9        
Aug 24 22:28 ENE 15 16.09 Cloudy OVC015 22 19     84%   23 1015.9        
Aug 24 21:52 E 13 16.09 Cloudy OVC011 23 19     81%   23 1015.9 1014.8      
Aug 24 21:36 E 13 16.09 Cloudy BKN011 BKN019 OVC029 23 20     84%   23 1015.9        
Aug 24 21:18 E 15 16.09 Cloudy FEW009 BKN018 OVC029 23 20     84%   23 1015.9        
Aug 24 20:52 ENE 15 16.09 Cloudy FEW011 OVC018 23 20     84%   23 1015.9 1015      
Aug 24 20:43 ENE 17 16.09 Cloudy SCT011 OVC018 23 20     84%   23 1015.9        
Aug 24 20:08 ENE 9 16.09 Cloudy BKN011 OVC017 23 20     82%   24 1015.6        
Aug 24 20:00 ENE 13 16.09 Cloudy SCT012 OVC017 23 20     82%   24 1015.6        
Aug 24 19:52 ENE 9 16.09 Cloudy BKN012 OVC017 23 20     82%   24 1015.6 1014.5      
Aug 24 19:04 E 15 16.09 Cloudy OVC014 23 20     82%   24 1015.6        
Aug 24 18:52 ENE 13 16.09 Cloudy OVC015 23 20     82%   24 1015.6 1014.4      
Aug 24 17:52 ENE 17 16.09 Cloudy OVC016 24 20     76%   25 1015.6 1014.6      
Aug 24 16:52 ENE 22 16.09 Cloudy OVC017 26 21     74%   26 1015.2 1014.2      
Aug 24 15:52 ENE 18 16.09 Mostly Cloudy BKN016 26 21     74%   28 1015.6 1014.4      
Aug 24 14:52 E 13 16.09 Cloudy OVC017 26 21     74%   26 1015.9 1015      
Aug 24 14:01 E 15 16.09 Cloudy OVC015 26 21     74%   26 1016.6        
Aug 24 13:52 ESE 15 16.09 Cloudy OVC014 25 20     74%   25 1016.6 1015.6      
Aug 24 12:52 E 15 16.09 Cloudy OVC010 24 21     79%   25 1016.9 1015.7      
Aug 24 11:52 ESE 13 16.09 Cloudy OVC012 26 21     76%   26 1017.3 1016.1      
Aug 24 10:59 ESE 18 16.09 Cloudy OVC010 24 21     82%   24 1017.3        
Aug 24 10:52 E 17 16.09 Cloudy OVC009 24 21     82%   24 1017.3 1016.3      
Aug 24 09:52 E 13 16.09 Cloudy OVC008 23 21     85%   24 1017.3 1016.3      
Aug 24 08:52 E 11 16.09 Cloudy OVC007 23 21     87%   23 1017.6 1016.5      
Aug 24 07:52 E 9 16.09 Cloudy OVC009 23 21     90%   23 1017.3 1016.3      
Aug 24 07:39 E 8 16.09 Cloudy OVC009 23 21     90%   23 1017.3        
Aug 24 06:52 ENE 11 16.09 Cloudy OVC010 23 21     90%   23 1017.3 1016      
Aug 24 05:52 E 11 16.09 Cloudy BKN007 OVC013 23 21     90%   23 1017.3 1016.1      
Aug 24 04:52 E 11 16.09 Cloudy OVC007 23 21     90%   23 1016.9 1015.8      
Aug 24 03:52 E 11 16.09 Cloudy OVC005 22 21     91%   23 1016.9 1015.9      
Aug 24 03:25 E 11 16.09 Mostly Cloudy BKN007 22 21     91%   23 1016.6        
Aug 24 03:13 E 11 16.09 Partly Cloudy SCT008 22 21     91%   23 1016.9        
Aug 24 02:52 E 9 16.09 Clear CLR 22 21     91%   23 1016.9 1015.8      
Aug 24 01:52 E 8 16.09 Clear CLR 22 21     91%   23 1017.6 1016.6      
Aug 24 00:52 E 9 16.09 Clear CLR 23 21     87%   23 1017.3 1016.2      
Aug 23 23:52 ESE 13 16.09 Mostly Cloudy BKN055 23 21     90%   23 1016.9 1015.6      
Aug 23 22:52 E 15 16.09 Mostly Clear FEW020 24 21     82%   24 1016.6 1015.6      
Aug 23 21:52 E 8 16.09 Mostly Clear FEW032 FEW039 FEW055 24 21     84%   25 1016.9 1016      
Aug 23 20:52 E 5 16.09 Clear CLR 24 21     84%   25 1016.6 1015.6      
Aug 23 19:52 E 9 16.09 Partly Cloudy SCT021 SCT031 25 21     79%   26 1016.3 1015.1      
Aug 23 19:49 ESE 11 16.09 Mostly Cloudy SCT021 SCT031 BKN049 26 21     74%   27 1016.3        
Aug 23 19:34 E 8 16.09 Mostly Cloudy SCT022 BKN029 BKN034 26 21     74%   28 1016.3        
Aug 23 19:19 ENE 5 16.09 Partly Cloudy SCT022 SCT029 26 21     72%   27 1015.9        
Aug 23 19:07 E 13 16.09 Mostly Cloudy SCT022 BKN029 BKN043 27 21     69%   28 1015.9        
Aug 23 18:52 ESE 11 16.09 Mostly Clear FEW023 27 21     69%   29 1015.9 1014.8     0
Aug 23 17:52 ESE 13 16.09 Mostly Clear FEW024 FEW036 28 21     67%   30 1015.9 1014.8      
Aug 23 17:35 ESE 11 16.09 Partly Cloudy FEW022 FEW027 SCT034 28 22     69%   30 1015.9        
Aug 23 17:08 ESE 15 16.09 Mostly Cloudy BKN025 BKN032 28 22     67%   31 1015.6        
Aug 23 16:52 SSE 11 16.09 Partly Cloudy SCT029 28 21     65%   31 1015.6 1014.5      
Aug 23 15:52 SE 17 16.09 Mostly Cloudy FEW022 BKN070 28 22     67%   31 1015.9 1014.6   0  
Aug 23 14:52 SSE 13 16.09 Partly Cloudy FEW020 SCT039 SCT050 28 22     69%   30 1016.3 1015.1 0    
Aug 23 14:42 SSE 21 16.09 Mostly Cloudy FEW020 SCT033 BKN049 28 22     69%   30 1016.3   0    
Aug 23 13:52 ESE 9 16.09 Cloudy BKN024 OVC035 28 21     67%   30 1016.6 1015.3      
Aug 23 13:40 ESE 11 16.09 Cloudy BKN024 BKN037 OVC047 28 21     65%   31 1016.6        
Aug 23 12:52   16.09 Cloudy SCT021 BKN046 OVC055 27 21     69%   29 1017.3 1016.1      
Aug 23 11:59 SSE 5 16.09 Cloudy SCT019 OVC050 27 21     69%   28 1018        
Aug 23 11:52 ESE 5 16.09 Cloudy BKN019 OVC050 27 21     71%   28 1018 1016.7      
Aug 23 11:02 SE 8 16.09 Mostly Cloudy BKN016 BKN025 26 21     76%   26 1017.6        
Aug 23 10:52 S 8 16.09 Partly Cloudy FEW013 SCT019 SCT050 26 21     74%   28 1017.6 1016.4      
Aug 23 10:19 SSE 11 16.09 Partly Cloudy FEW012 FEW027 SCT032 25 21     79%   26 1017.3        
Aug 23 10:11 SSE 9 16.09 Mostly Cloudy FEW012 BKN028 BKN032 25 21     79%   26 1017.3        
Aug 23 10:04 SE 9 16.09 Cloudy FEW012 SCT025 OVC031 25 21     79%   26 1017.3        
Aug 23 09:52 SSE 11 16.09 Cloudy FEW012 BKN028 OVC035 25 21     79%   26 1017.3 1015.9      
Aug 23 09:18 ESE 8 16.09 Mostly Cloudy BKN011 BKN014 24 21     82%   25 1016.9        
Aug 23 09:04 ESE 9 16.09 Partly Cloudy SCT009 24 22     85%   25 1016.6        
Aug 23 08:52 ESE 9 16.09 Clear CLR 24 22     85%   25 1016.6 1015.6      
Aug 23 08:17 ESE 8 16.09 Partly Cloudy SCT003 23 22     91%   24 1016.3        
Aug 23 08:07 ESE 8 16.09 Mostly Cloudy BKN004 23 22     94%   24 1016.3        
Aug 23 07:52 ESE 9 16.09 Partly Cloudy SCT004 23 21     90%   23 1016.3 1015.1      
Aug 23 06:52 E 8 16.09 Clear CLR 23 21     90%   23 1016.3 1015.1      
Aug 23 06:27 E 5 16.09 Mostly Clear FEW007 23 21     90%   23 1016.3        
Aug 23 05:52 E 8 16.09 Clear CLR 23 21     90%   23 1015.9 1014.8      
Aug 23 04:52 ESE 8 16.09 Clear CLR 23 21     90%   23 1014.9 1013.8      
Aug 23 03:52 ESE 9 16.09 Clear CLR 23 21     87%   24 1014.6 1013.4      
Aug 23 02:52 NNE 11 16.09 Clear CLR 23 21     87%   24 1014.6 1013.5      
Aug 23 01:52 E 11 16.09 Mostly Clear FEW110 24 22     88%   25 1014.6 1013.4      
Aug 23 00:52 E 9 16.09 Cloudy SCT065 OVC100 24 22     88%   25 1015.9 1014.7      
Aug 22 23:52 ESE 8 16.09 Mostly Clear FEW110 24 21     84%   25 1015.2 1014.2      
Aug 22 22:52 E 5 16.09 Mostly Cloudy BKN100 24 22     85%   25 1015.2 1014.3      
Aug 22 21:52 NE 5 16.09 Partly Cloudy SCT110 24 22     85%   25 1014.9 1013.9      
Aug 22 20:52 NNE 5 16.09 Mostly Clear FEW120 24 21     82%   25 1014.9 1013.7      
Aug 22 19:52 SE 9 16.09 Clear CLR 26 21     76%   26 1013.9 1012.8      
Aug 22 18:52 E 13 16.09 Clear CLR 27 21     71%   28 1013.6 1012.3     0
Aug 22 17:52 E 9 16.09 Mostly Clear FEW023 FEW031 27 21     69%   29 1013.9 1012.9      
Aug 22 16:52 ESE 9 16.09 Cloudy FEW020 OVC033 27 21     69%   29 1015.2 1014      
Aug 22 16:44 ESE 8 16.09 Mostly Cloudy FEW020 BKN031 27 21     69%   29 1015.2        
Aug 22 16:32 SSE 9 16.09 Mostly Cloudy SCT020 BKN029 27 21     71%   28 1015.2        
Aug 22 15:52 SE 9 16.09 Mostly Clear FEW018 26 21     74%   28 1015.2 1014.2 0 0  
Aug 22 15:45 5 16.09 Partly Cloudy FEW019 SCT025 26 21     74%   28 1015.2   0    
Aug 22 14:52 S 9 16.09 Mostly Cloudy FEW016 BKN022 BKN070 26 21     76%   26 1015.6 1014.6 0    
Aug 22 14:06 E 9 16.09 Partly Cloudy SCT024 25 21     79%   26 1015.6   0    
Aug 22 13:52 ESE 8 16.09 Light Rain BKN025 25 21     79%   26 1015.6 1014.5 0    
Aug 22 13:29 SSE 8 16.09 Cloudy SCT012 OVC021 24 21     82%   25 1015.9   0    
Notice The following observation data may not be complete
May 15 02:24   16.09 Light Rain OVC110          %         0    
May 15 02:09   12.87 Thunderstorms and Rain SCT090 OVC110 18 18     100%     1015.6   0    
May 14 20:13 E 17 16.09 Thunderstorms SCT017 20 19     93%     1010.8   0    
May 14 19:52   1.21 Thunderstorms and Heavy Rain and Fog/Mist OVC021 20 19     93%     1010.5 1009.6 2    
May 13 14:52 S 30 16.09 Clear CLR 31 22     59%   34 1013.9 1012.6      
May 13 11:52 S 28 16.09 Clear CLR 29 21     63%   31 1015.2 1014.1      
May 11 10:52   16.09 Clear CLR 26 18     62%   26 1009.2 1008.1      
Jun 12 00:52 S 18 16.09 Clear CLR 24 18     71%   24 1012.5 1011.3      
Jun 11 15:52   16.09 Clear CLR 32 20     50%   34 1010.5 1009.2      
Jun 11 13:52   16.09 Clear CLR 32 21     52%   34 1011.5 1010      
Jun 11 11:52   16.09 Clear CLR 30 19     53%   32 1011.5 1010.2      
Jun 10 06:52 SSE 13 16.09 Mostly Clear FEW035 19 16     84%     1010.8 1009.9      
Jun 10 02:52 S 15 16.09 Clear CLR 19 14     73%     1010.2 1008.9      
Jun 08 16:52 SSE 13 16.09 Clear CLR 28 11     35%   27 1014.6 1013.6      
Jun 07 23:52 Calm 16.09 Clear CLR 14 11     78%     1017.6 1017